| time (UTC) | temp F | wind direction | speed MPH | gust MPH | rain 1hr in | rain 24hr in | rain mn in | humidity % | barometer mb |
| 20260906073035 | 80 | 209 | 1.0 | 4.0 | 0.00 | 0.00 | 0.00 | 76 | 1009.6 |
| 20260906072518 | 81 | 205 | 2.0 | 4.0 | 0.00 | 0.00 | 0.00 | 76 | 1009.7 |
| 20260906072017 | 81 | 198 | 1.0 | 4.0 | 0.00 | 0.00 | 0.00 | 75 | 1009.7 |
| 20260906071516 | 81 | 149 | 2.0 | 6.0 | 0.00 | 0.00 | 0.00 | 75 | 1009.8 |
| 20260906071016 | 81 | 181 | 2.0 | 7.0 | 0.00 | 0.00 | 0.00 | 75 | 1009.9 |
| 20260906070514 | 81 | 160 | 3.0 | 8.0 | 0.00 | 0.00 | 0.00 | 74 | 1010.0 |
| 20260906070015 | 81 | 202 | 3.0 | 8.0 | 0.00 | 0.00 | 0.00 | 74 | 1010.1 |
| 20260906065513 | 81 | 140 | 3.0 | 8.0 | 0.00 | 0.00 | 0.00 | 74 | 1010.2 |
| 20260906065011 | 81 | 169 | 2.0 | 8.0 | 0.00 | 0.00 | 0.00 | 73 | 1010.3 |
| 20260906064512 | 81 | 156 | 3.0 | 8.0 | 0.00 | 0.00 | 0.00 | 73 | 1010.3 |
| 20260906064011 | 81 | 163 | 2.0 | 8.0 | 0.00 | 0.00 | 0.00 | 73 | 1010.2 |
| 20260906063516 | 81 | 165 | 0.0 | 9.0 | 0.00 | 0.00 | 0.00 | 73 | 1010.2 |
| 20260906063011 | 81 | 157 | 2.0 | 9.0 | 0.00 | 0.00 | 0.00 | 72 | 1010.2 |
| 20260906062510 | 82 | 153 | 3.0 | 9.0 | 0.00 | 0.00 | 0.00 | 72 | 1010.2 |
| 20260906062008 | 82 | 215 | 3.0 | 10.0 | 0.00 | 0.00 | 0.00 | 72 | 1010.2 |
| 20260906061507 | 82 | 173 | 3.0 | 10.0 | 0.00 | 0.00 | 0.00 | 71 | 1010.3 |
| 20260906061007 | 82 | 158 | 2.0 | 7.0 | 0.00 | 0.00 | 0.00 | 71 | 1010.4 |
| 20260906060507 | 82 | 177 | 2.0 | 8.0 | 0.00 | 0.00 | 0.00 | 70 | 1010.4 |
| 20260906060007 | 82 | 223 | 4.0 | 8.0 | 0.00 | 0.00 | 0.00 | 70 | 1010.4 |
| 20260906055506 | 82 | 144 | 1.0 | 7.0 | 0.00 | 0.00 | 0.00 | 70 | 1010.5 |
| 20260906055007 | 82 | 142 | 3.0 | 8.0 | 0.00 | 0.00 | 0.00 | 70 | 1010.5 |
| 20260906054509 | 82 | 182 | 2.0 | 8.0 | 0.00 | 0.00 | 0.00 | 69 | 1010.5 |
| 20260906054004 | 83 | 165 | 1.0 | 8.0 | 0.00 | 0.00 | 0.00 | 69 | 1010.5 |
| 20260906053504 | 83 | 150 | 2.0 | 5.0 | 0.00 | 0.00 | 0.00 | 69 | 1010.4 |
| 20260906053003 | 83 | 160 | 0.0 | 6.0 | 0.00 | 0.00 | 0.00 | 69 | 1010.4 |
| 20260906052502 | 83 | 180 | 2.0 | 8.0 | 0.00 | 0.00 | 0.00 | 68 | 1010.3 |
| 20260906052002 | 83 | 142 | 3.0 | 8.0 | 0.00 | 0.00 | 0.00 | 68 | 1010.3 |
| 20260906051502 | 83 | 180 | 2.0 | 8.0 | 0.00 | 0.00 | 0.00 | 68 | 1010.4 |
| 20260906051100 | 83 | 157 | 3.0 | 8.0 | 0.00 | 0.00 | 0.00 | 67 | 1010.4 |
| 20260906050558 | 83 | 184 | 3.0 | 8.0 | 0.00 | 0.00 | 0.00 | 67 | 1010.5 |
| 20260906050111 | 84 | 131 | 3.0 | 8.0 | 0.00 | 0.00 | 0.00 | 67 | 1010.6 |
| 20260906045556 | 84 | 103 | 1.0 | 8.0 | 0.00 | 0.00 | 0.00 | 66 | 1010.6 |
| 20260906045057 | 84 | 160 | 2.0 | 8.0 | 0.00 | 0.00 | 0.00 | 66 | 1010.4 |
| 20260906044556 | 84 | 185 | 1.0 | 12.0 | 0.00 | 0.00 | 0.00 | 65 | 1010.4 |
| 20260906044057 | 84 | 145 | 2.0 | 12.0 | 0.00 | 0.00 | 0.00 | 65 | 1010.5 |
| 20260906043555 | 84 | 145 | 2.0 | 9.0 | 0.00 | 0.00 | 0.00 | 64 | 1010.4 |
| 20260906043108 | 84 | 161 | 4.0 | 7.0 | 0.00 | 0.00 | 0.00 | 64 | 1010.4 |
| 20260906042556 | 84 | 121 | 3.0 | 9.0 | 0.00 | 0.00 | 0.00 | 63 | 1010.5 |
| 20260906042055 | 85 | 126 | 3.0 | 9.0 | 0.00 | 0.00 | 0.00 | 63 | 1010.5 |
| 20260906041556 | 85 | 169 | 2.0 | 8.0 | 0.00 | 0.00 | 0.00 | 63 | 1010.5 |
| 20260906041054 | 85 | 147 | 3.0 | 9.0 | 0.00 | 0.00 | 0.00 | 62 | 1010.6 |
| 20260906040555 | 85 | 184 | 3.0 | 9.0 | 0.00 | 0.00 | 0.00 | 61 | 1010.6 |
| 20260906040112 | 85 | 179 | 4.0 | 9.0 | 0.00 | 0.00 | 0.00 | 61 | 1010.4 |
| 20260906035554 | 85 | 153 | 2.0 | 10.0 | 0.00 | 0.00 | 0.00 | 61 | 1010.4 |
| 20260906035055 | 85 | 134 | 3.0 | 15.0 | 0.00 | 0.00 | 0.00 | 61 | 1010.4 |
| 20260906034554 | 85 | 140 | 4.0 | 14.0 | 0.00 | 0.00 | 0.00 | 61 | 1010.4 |
| 20260906034053 | 86 | 152 | 1.0 | 9.0 | 0.00 | 0.00 | 0.00 | 62 | 1010.3 |
| 20260906033555 | 86 | 154 | 2.0 | 10.0 | 0.00 | 0.00 | 0.00 | 61 | 1010.2 |
| 20260906033054 | 86 | 127 | 3.0 | 10.0 | 0.00 | 0.00 | 0.00 | 61 | 1010.1 |
| 20260906032557 | 86 | 155 | 2.0 | 9.0 | 0.00 | 0.00 | 0.00 | 61 | 1009.9 |
| 20260906032155 | 86 | 106 | 3.0 | 9.0 | 0.00 | 0.00 | 0.00 | 60 | 1009.8 |
| 20260906031601 | 86 | 143 | 3.0 | 9.0 | 0.00 | 0.00 | 0.00 | 60 | 1009.7 |
| 20260906031053 | 86 | 150 | 4.0 | 9.0 | 0.00 | 0.00 | 0.00 | 59 | 1009.6 |
| 20260906030553 | 87 | 155 | 4.0 | 9.0 | 0.00 | 0.00 | 0.00 | 59 | 1009.4 |
| 20260906025552 | 87 | 184 | 3.0 | 8.0 | 0.00 | 0.00 | 0.00 | 59 | 1009.3 |
| 20260906025052 | 87 | 119 | 2.0 | 10.0 | 0.00 | 0.00 | 0.00 | 58 | 1009.2 |
| 20260906024552 | 88 | 81 | 3.0 | 10.0 | 0.00 | 0.00 | 0.00 | 58 | 1009.0 |
| 20260906024054 | 88 | 105 | 1.0 | 7.0 | 0.00 | 0.00 | 0.00 | 57 | 1008.9 |
| 20260906023552 | 88 | 102 | 2.0 | 9.0 | 0.00 | 0.00 | 0.00 | 57 | 1008.8 |
| 20260906023106 | 88 | 32 | 3.0 | 11.0 | 0.00 | 0.00 | 0.00 | 56 | 1008.7 |
| 20260906022551 | 89 | 107 | 4.0 | 12.0 | 0.00 | 0.00 | 0.00 | 56 | 1008.6 |
| 20260906022052 | 89 | 132 | 4.0 | 12.0 | 0.00 | 0.00 | 0.00 | 55 | 1008.4 |
| 20260906021551 | 89 | 121 | 2.0 | 9.0 | 0.00 | 0.00 | 0.00 | 55 | 1008.2 |
| 20260906021050 | 90 | 105 | 2.0 | 11.0 | 0.00 | 0.00 | 0.00 | 54 | 1008.1 |
| 20260906020551 | 90 | 109 | 3.0 | 12.0 | 0.00 | 0.00 | 0.00 | 53 | 1008.1 |
| 20260906020051 | 91 | 188 | 2.0 | 12.0 | 0.00 | 0.00 | 0.00 | 52 | 1007.9 |
| 20260906015550 | 91 | 103 | 4.0 | 14.0 | 0.00 | 0.00 | 0.00 | 50 | 1007.9 |
| 20260906015050 | 92 | 145 | 4.0 | 14.0 | 0.00 | 0.00 | 0.00 | 47 | 1007.8 |
| 20260906014604 | 92 | 113 | 2.0 | 6.0 | 0.00 | 0.00 | 0.00 | 47 | 1007.6 |
| 20260906014049 | 92 | 169 | 2.0 | 7.0 | 0.00 | 0.00 | 0.00 | 47 | 1007.6 |
| 20260906013550 | 92 | 131 | 1.0 | 6.0 | 0.00 | 0.00 | 0.00 | 47 | 1007.6 |
| 20260906013051 | 92 | 159 | 1.0 | 4.0 | 0.00 | 0.00 | 0.00 | 46 | 1007.5 |
| 20260906012549 | 93 | 110 | 0.0 | 5.0 | 0.00 | 0.00 | 0.00 | 46 | 1007.5 |
| 20260906012049 | 93 | 90 | 1.0 | 5.0 | 0.00 | 0.00 | 0.00 | 45 | 1007.4 |
| 20260906011555 | 93 | 108 | 2.0 | 11.0 | 0.00 | 0.00 | 0.00 | 44 | 1007.3 |
| 20260906011049 | 93 | 155 | 2.0 | 11.0 | 0.00 | 0.00 | 0.00 | 43 | 1007.2 |
| 20260906010550 | 94 | 102 | 2.0 | 8.0 | 0.00 | 0.00 | 0.00 | 42 | 1007.2 |
| 20260906010049 | 94 | 115 | 1.0 | 6.0 | 0.00 | 0.00 | 0.00 | 40 | 1007.1 |
| 20260906005549 | 94 | 113 | 1.0 | 4.0 | 0.00 | 0.00 | 0.00 | 40 | 1007.1 |
| 20260906005048 | 94 | 109 | 0.0 | 5.0 | 0.00 | 0.00 | 0.00 | 40 | 1007.0 |
| 20260906004553 | 95 | 108 | 1.0 | 5.0 | 0.00 | 0.00 | 0.00 | 41 | 1007.0 |
| 20260906004051 | 95 | 128 | 0.0 | 4.0 | 0.00 | 0.00 | 0.00 | 40 | 1006.9 |
| 20260906003551 | 95 | 150 | 1.0 | 6.0 | 0.00 | 0.00 | 0.00 | 39 | 1007.0 |
| 20260906003052 | 95 | 35 | 2.0 | 7.0 | 0.00 | 0.00 | 0.00 | 40 | 1007.0 |
| 20260906002547 | 96 | 76 | 1.0 | 7.0 | 0.00 | 0.00 | 0.00 | 40 | 1007.0 |
| 20260906002047 | 96 | 65 | 1.0 | 5.0 | 0.00 | 0.00 | 0.00 | 41 | 1006.9 |
| 20260906001546 | 96 | 103 | 0.0 | 8.0 | 0.00 | 0.00 | 0.00 | 41 | 1007.0 |
| 20260906001046 | 96 | 67 | 3.0 | 8.0 | 0.00 | 0.00 | 0.00 | 41 | 1007.0 |
| 20260906000546 | 96 | 54 | 2.0 | 8.0 | 0.00 | 0.00 | 0.00 | 41 | 1007.1 |
| 20260906000049 | 96 | 92 | 3.0 | 7.0 | 0.00 | 0.00 | 0.00 | 40 | 1007.0 |
| 20260905235545 | 96 | 72 | 1.0 | 4.0 | 0.00 | 0.00 | 0.00 | 40 | 1007.0 |
| 20260905235045 | 97 | 130 | 1.0 | 4.0 | 0.00 | 0.00 | 0.00 | 40 | 1006.9 |
| 20260905234553 | 96 | 74 | 1.0 | 7.0 | 0.00 | 0.00 | 0.00 | 40 | 1007.0 |
| 20260905234045 | 97 | 98 | 2.0 | 7.0 | 0.00 | 0.00 | 0.00 | 40 | 1006.9 |
| 20260905233545 | 97 | 39 | 2.0 | 7.0 | 0.00 | 0.00 | 0.00 | 39 | 1007.0 |
| 20260905233045 | 97 | 110 | 4.0 | 8.0 | 0.00 | 0.00 | 0.00 | 39 | 1007.0 |
| 20260905232544 | 97 | 78 | 2.0 | 4.0 | 0.00 | 0.00 | 0.00 | 39 | 1006.9 |
| 20260905232045 | 97 | 112 | 1.0 | 7.0 | 0.00 | 0.00 | 0.00 | 40 | 1006.9 |
| 20260905231546 | 97 | 138 | 2.0 | 7.0 | 0.00 | 0.00 | 0.00 | 40 | 1006.9 |
| 20260905231045 | 97 | 104 | 2.0 | 7.0 | 0.00 | 0.00 | 0.00 | 40 | 1006.9 |
| 20260905230543 | 97 | 178 | 3.0 | 10.0 | 0.00 | 0.00 | 0.00 | 40 | 1006.9 |
| 20260905230044 | 97 | 78 | 2.0 | 5.0 | 0.00 | 0.00 | 0.00 | 40 | 1006.9 |
| 20260905225543 | 97 | 87 | 1.0 | 6.0 | 0.00 | 0.00 | 0.00 | 39 | 1006.9 |
| 20260905225043 | 96 | 50 | 2.0 | 7.0 | 0.00 | 0.00 | 0.00 | 40 | 1007.0 |
| 20260905224548 | 96 | 53 | 2.0 | 5.0 | 0.00 | 0.00 | 0.00 | 40 | 1007.0 |
| 20260905224040 | 95 | 55 | 1.0 | 3.0 | 0.00 | 0.00 | 0.00 | 41 | 1007.1 |
| 20260905223540 | 95 | 145 | 0.0 | 2.0 | 0.00 | 0.00 | 0.00 | 41 | 1007.0 |
| 20260905223040 | 95 | 72 | 0.0 | 4.0 | 0.00 | 0.00 | 0.00 | 41 | 1007.0 |
| 20260905222539 | 95 | 73 | 0.0 | 4.0 | 0.00 | 0.00 | 0.00 | 41 | 1007.1 |
| 20260905222043 | 95 | 64 | 0.0 | 7.0 | 0.00 | 0.00 | 0.00 | 42 | 1007.2 |
| 20260905221542 | 95 | 40 | 2.0 | 7.0 | 0.00 | 0.00 | 0.00 | 42 | 1007.1 |
| 20260905221038 | 95 | 66 | 2.0 | 4.0 | 0.00 | 0.00 | 0.00 | 40 | 1007.1 |
| 20260905220537 | 95 | 90 | 0.0 | 6.0 | 0.00 | 0.00 | 0.00 | 41 | 1007.1 |
| 20260905220037 | 95 | 67 | 2.0 | 13.0 | 0.00 | 0.00 | 0.00 | 42 | 1007.2 |
| 20260905215537 | 96 | 83 | 5.0 | 13.0 | 0.00 | 0.00 | 0.00 | 42 | 1007.2 |
| 20260905215040 | 97 | 5 | 3.0 | 9.0 | 0.00 | 0.00 | 0.00 | 41 | 1007.1 |
| 20260905214537 | 97 | 112 | 3.0 | 8.0 | 0.00 | 0.00 | 0.00 | 42 | 1007.2 |
| 20260905214035 | 96 | 173 | 2.0 | 7.0 | 0.00 | 0.00 | 0.00 | 42 | 1007.3 |
| 20260905213535 | 95 | 191 | 0.0 | 4.0 | 0.00 | 0.00 | 0.00 | 44 | 1007.3 |
| 20260905213035 | 95 | 198 | 1.0 | 6.0 | 0.00 | 0.00 | 0.00 | 44 | 1007.4 |
| 20260905212534 | 95 | 84 | 4.0 | 6.0 | 0.00 | 0.00 | 0.00 | 44 | 1007.5 |
| 20260905212134 | 96 | 87 | 2.0 | 5.0 | 0.00 | 0.00 | 0.00 | 44 | 1007.4 |
| 20260905211533 | 96 | 26 | 1.0 | 6.0 | 0.00 | 0.00 | 0.00 | 43 | 1007.4 |
| 20260905211032 | 98 | 46 | 3.0 | 6.0 | 0.00 | 0.00 | 0.00 | 42 | 1007.5 |
| 20260905210533 | 98 | 36 | 2.0 | 7.0 | 0.00 | 0.00 | 0.00 | 42 | 1007.6 |
| 20260905210032 | 98 | 177 | 3.0 | 7.0 | 0.00 | 0.00 | 0.00 | 41 | 1007.6 |
| 20260905205530 | 99 | 175 | 0.0 | 10.0 | 0.00 | 0.00 | 0.00 | 41 | 1007.6 |
| 20260905205031 | 98 | 53 | 1.0 | 6.0 | 0.00 | 0.00 | 0.00 | 42 | 1007.6 |
| 20260905204528 | 97 | 53 | 3.0 | 7.0 | 0.00 | 0.00 | 0.00 | 43 | 1007.8 |
| 20260905204027 | 97 | 98 | 1.0 | 7.0 | 0.00 | 0.00 | 0.00 | 43 | 1007.9 |
| 20260905203526 | 97 | 58 | 2.0 | 9.0 | 0.00 | 0.00 | 0.00 | 43 | 1008.0 |
| 20260905203026 | 97 | 55 | 4.0 | 9.0 | 0.00 | 0.00 | 0.00 | 42 | 1008.2 |
| 20260905202523 | 97 | 303 | 4.0 | 10.0 | 0.00 | 0.00 | 0.00 | 43 | 1008.2 |
| 20260905202023 | 96 | 67 | 6.0 | 11.0 | 0.00 | 0.00 | 0.00 | 45 | 1008.4 |
| 20260905201522 | 97 | 94 | 4.0 | 11.0 | 0.00 | 0.00 | 0.00 | 44 | 1008.6 |
| 20260905201023 | 97 | 156 | 1.0 | 3.0 | 0.00 | 0.00 | 0.00 | 43 | 1008.6 |
| 20260905200521 | 96 | 76 | 1.0 | 9.0 | 0.00 | 0.00 | 0.00 | 45 | 1008.7 |
| 20260905200020 | 95 | 129 | 3.0 | 9.0 | 0.00 | 0.00 | 0.00 | 45 | 1008.9 |
| 20260905195525 | 95 | 168 | 4.0 | 8.0 | 0.00 | 0.00 | 0.00 | 44 | 1008.9 |
| 20260905195022 | 96 | 195 | 3.0 | 11.0 | 0.00 | 0.00 | 0.00 | 43 | 1009.0 |
| 20260905194518 | 97 | 75 | 2.0 | 11.0 | 0.00 | 0.00 | 0.00 | 43 | 1009.0 |
| 20260905194017 | 97 | 177 | 1.0 | 7.0 | 0.00 | 0.00 | 0.00 | 42 | 1009.1 |
| 20260905193516 | 97 | 186 | 3.0 | 9.0 | 0.00 | 0.00 | 0.00 | 42 | 1009.2 |
| 20260905193020 | 97 | 326 | 3.0 | 9.0 | 0.00 | 0.00 | 0.00 | 42 | 1009.1 |
| 20260905192516 | 97 | 109 | 3.0 | 8.0 | 0.00 | 0.00 | 0.00 | 41 | 1009.3 |
| 20260905192015 | 96 | 213 | 2.0 | 9.0 | 0.00 | 0.00 | 0.00 | 45 | 1009.5 |
| 20260905191513 | 95 | 190 | 2.0 | 9.0 | 0.00 | 0.00 | 0.00 | 46 | 1009.6 |
| 20260905191013 | 96 | 313 | 1.0 | 8.0 | 0.00 | 0.00 | 0.00 | 46 | 1009.6 |
| 20260905190511 | 96 | 171 | 1.0 | 7.0 | 0.00 | 0.00 | 0.00 | 47 | 1009.7 |
| 20260905190035 | 96 | 131 | 2.0 | 8.0 | 0.00 | 0.00 | 0.00 | 46 | 1009.8 |
| 20260905185510 | 96 | 26 | 1.0 | 6.0 | 0.00 | 0.00 | 0.00 | 46 | 1010.0 |
| 20260905185009 | 96 | 99 | 2.0 | 7.0 | 0.00 | 0.00 | 0.00 | 46 | 1010.1 |
| 20260905184509 | 95 | 109 | 2.0 | 7.0 | 0.00 | 0.00 | 0.00 | 47 | 1010.1 |
| 20260905184008 | 95 | 175 | 0.0 | 6.0 | 0.00 | 0.00 | 0.00 | 49 | 1010.2 |
| 20260905183508 | 95 | 140 | 1.0 | 8.0 | 0.00 | 0.00 | 0.00 | 48 | 1010.3 |
| 20260905183013 | 95 | 159 | 3.0 | 8.0 | 0.00 | 0.00 | 0.00 | 48 | 1010.4 |
| 20260905182506 | 95 | 169 | 2.0 | 11.0 | 0.00 | 0.00 | 0.00 | 50 | 1010.5 |
| 20260905182005 | 94 | 71 | 4.0 | 11.0 | 0.00 | 0.00 | 0.00 | 50 | 1010.5 |
| 20260905181508 | 94 | 51 | 1.0 | 6.0 | 0.00 | 0.00 | 0.00 | 50 | 1010.6 |
| 20260905181004 | 94 | 15 | 2.0 | 8.0 | 0.00 | 0.00 | 0.00 | 50 | 1010.8 |
| 20260905180506 | 94 | 248 | 3.0 | 8.0 | 0.00 | 0.00 | 0.00 | 49 | 1010.9 |
| 20260905180002 | 93 | 246 | 2.0 | 9.0 | 0.00 | 0.00 | 0.00 | 51 | 1010.9 |
| 20260905175501 | 93 | 61 | 1.0 | 9.0 | 0.00 | 0.00 | 0.00 | 52 | 1010.9 |
| 20260905175001 | 92 | 150 | 2.0 | 7.0 | 0.00 | 0.00 | 0.00 | 53 | 1011.1 |
| 20260905174500 | 92 | 109 | 2.0 | 14.0 | 0.00 | 0.00 | 0.00 | 53 | 1011.0 |
| 20260905174100 | 93 | 155 | 2.0 | 14.0 | 0.00 | 0.00 | 0.00 | 52 | 1011.0 |
| 20260905173559 | 92 | 200 | 3.0 | 10.0 | 0.00 | 0.00 | 0.00 | 55 | 1011.0 |
| 20260905173058 | 90 | 116 | 2.0 | 8.0 | 0.00 | 0.00 | 0.00 | 60 | 1011.1 |
| 20260905172558 | 90 | 169 | 4.0 | 8.0 | 0.00 | 0.00 | 0.00 | 59 | 1011.1 |
| 20260905172057 | 89 | 227 | 2.0 | 9.0 | 0.00 | 0.00 | 0.00 | 60 | 1011.2 |
| 20260905171603 | 90 | 105 | 2.0 | 9.0 | 0.00 | 0.00 | 0.00 | 59 | 1011.4 |
| 20260905171056 | 90 | 205 | 4.0 | 10.0 | 0.00 | 0.00 | 0.00 | 60 | 1011.4 |
| 20260905170556 | 90 | 108 | 2.0 | 9.0 | 0.00 | 0.00 | 0.00 | 59 | 1011.5 |
| 20260905170055 | 88 | 176 | 4.0 | 9.0 | 0.00 | 0.00 | 0.00 | 61 | 1011.6 |
| 20260905165557 | 90 | 157 | 2.0 | 9.0 | 0.00 | 0.00 | 0.00 | 58 | 1011.7 |
| 20260905165055 | 90 | 30 | 4.0 | 9.0 | 0.00 | 0.00 | 0.00 | 58 | 1011.7 |
| 20260905164600 | 90 | 85 | 2.0 | 8.0 | 0.00 | 0.00 | 0.00 | 59 | 1011.7 |
| 20260905164053 | 89 | 195 | 2.0 | 8.0 | 0.00 | 0.00 | 0.00 | 61 | 1011.7 |
| 20260905163552 | 87 | 268 | 2.0 | 7.0 | 0.00 | 0.00 | 0.00 | 65 | 1011.7 |
| 20260905163052 | 86 | 211 | 4.0 | 7.0 | 0.00 | 0.00 | 0.00 | 66 | 1011.7 |
| 20260905162551 | 86 | 142 | 3.0 | 9.0 | 0.00 | 0.00 | 0.00 | 67 | 1011.7 |
| 20260905162053 | 86 | 194 | 2.0 | 9.0 | 0.00 | 0.00 | 0.00 | 66 | 1011.8 |
| 20260905161549 | 87 | 224 | 3.0 | 7.0 | 0.00 | 0.00 | 0.00 | 67 | 1011.8 |
| 20260905161049 | 86 | 211 | 3.0 | 10.0 | 0.00 | 0.00 | 0.00 | 67 | 1011.9 |
| 20260905160550 | 87 | 189 | 4.0 | 7.0 | 0.00 | 0.00 | 0.00 | 67 | 1011.9 |
| 20260905160047 | 86 | 219 | 3.0 | 9.0 | 0.00 | 0.00 | 0.00 | 68 | 1011.9 |
| 20260905155546 | 86 | 213 | 4.0 | 9.0 | 0.00 | 0.00 | 0.00 | 68 | 1011.8 |
| 20260905155045 | 85 | 244 | 3.0 | 8.0 | 0.00 | 0.00 | 0.00 | 70 | 1011.8 |
| 20260905154544 | 85 | 234 | 3.0 | 9.0 | 0.00 | 0.00 | 0.00 | 71 | 1011.8 |
| 20260905154042 | 84 | 191 | 4.0 | 9.0 | 0.00 | 0.00 | 0.00 | 72 | 1011.8 |
| 20260905153541 | 84 | 211 | 2.0 | 5.0 | 0.00 | 0.00 | 0.00 | 74 | 1011.8 |
| 20260905153052 | 84 | 157 | 0.0 | 5.0 | 0.00 | 0.00 | 0.00 | 75 | 1011.7 |
| 20260905152539 | 84 | 163 | 2.0 | 6.0 | 0.00 | 0.00 | 0.00 | 75 | 1011.7 |
| 20260905152039 | 83 | 227 | 2.0 | 4.0 | 0.00 | 0.00 | 0.00 | 75 | 1011.7 |
| 20260905151542 | 83 | 149 | 2.0 | 4.0 | 0.00 | 0.00 | 0.00 | 75 | 1011.7 |
| 20260905151037 | 83 | 167 | 2.0 | 5.0 | 0.00 | 0.00 | 0.00 | 76 | 1011.7 |
| 20260905150537 | 83 | 209 | 2.0 | 7.0 | 0.00 | 0.00 | 0.00 | 76 | 1011.7 |
| 20260905150037 | 83 | 150 | 3.0 | 7.0 | 0.00 | 0.00 | 0.00 | 77 | 1011.7 |
| 20260905145536 | 82 | 99 | 2.0 | 6.0 | 0.00 | 0.00 | 0.00 | 78 | 1011.7 |
| 20260905145036 | 82 | 148 | 0.0 | 6.0 | 0.00 | 0.00 | 0.00 | 79 | 1011.7 |
| 20260905144536 | 82 | 148 | 1.0 | 5.0 | 0.00 | 0.00 | 0.00 | 78 | 1011.6 |
| 20260905144036 | 82 | 169 | 1.0 | 5.0 | 0.00 | 0.00 | 0.00 | 78 | 1011.6 |
| 20260905143535 | 82 | 146 | 2.0 | 4.0 | 0.00 | 0.00 | 0.00 | 78 | 1011.7 |
| 20260905143038 | 82 | 146 | 1.0 | 4.0 | 0.00 | 0.00 | 0.00 | 78 | 1011.7 |
| 20260905142533 | 82 | 200 | 1.0 | 4.0 | 0.00 | 0.00 | 0.00 | 78 | 1011.7 |
| 20260905142034 | 82 | 68 | 1.0 | 3.0 | 0.00 | 0.00 | 0.00 | 79 | 1011.6 |
| 20260905141534 | 82 | 110 | 1.0 | 4.0 | 0.00 | 0.00 | 0.00 | 80 | 1011.6 |
| 20260905141032 | 81 | 136 | 2.0 | 4.0 | 0.00 | 0.00 | 0.00 | 81 | 1011.6 |
| 20260905140534 | 81 | 17 | 1.0 | 4.0 | 0.00 | 0.00 | 0.00 | 81 | 1011.6 |
| 20260905140031 | 81 | 108 | 2.0 | 6.0 | 0.00 | 0.00 | 0.00 | 81 | 1011.4 |
| 20260905135531 | 81 | 138 | 2.0 | 6.0 | 0.00 | 0.00 | 0.00 | 81 | 1011.4 |
| 20260905135029 | 81 | 105 | 2.0 | 4.0 | 0.00 | 0.00 | 0.00 | 82 | 1011.4 |
| 20260905134529 | 81 | 170 | 1.0 | 4.0 | 0.00 | 0.00 | 0.00 | 84 | 1011.3 |
| 20260905134027 | 81 | 184 | 0.0 | 2.0 | 0.00 | 0.00 | 0.00 | 85 | 1011.1 |
| 20260905133526 | 80 | 51 | 0.0 | 2.0 | 0.00 | 0.00 | 0.00 | 85 | 1011.2 |
| 20260905133031 | 80 | 51 | 0.0 | 2.0 | 0.00 | 0.00 | 0.00 | 86 | 1011.1 |
| 20260905132524 | 80 | 51 | 0.0 | 3.0 | 0.00 | 0.00 | 0.00 | 86 | 1011.1 |
| 20260905132023 | 80 | 51 | 0.0 | 0.0 | 0.00 | 0.00 | 0.00 | 86 | 1011.1 |
| 20260905131530 | 79 | 51 | 0.0 | 0.0 | 0.00 | 0.00 | 0.00 | 86 | 1011.0 |
| 20260905131019 | 79 | 51 | 0.0 | 0.0 | 0.00 | 0.00 | 0.00 | 86 | 1010.9 |
| 20260905130518 | 79 | 51 | 0.0 | 0.0 | 0.00 | 0.00 | 0.00 | 86 | 1010.8 |
| 20260905130031 | 79 | 51 | 0.0 | 0.0 | 0.00 | 0.00 | 0.00 | 86 | 1010.8 |
| 20260905125516 | 78 | 51 | 0.0 | 0.0 | 0.00 | 0.00 | 0.00 | 86 | 1010.8 |
| 20260905125016 | 78 | 51 | 0.0 | 0.0 | 0.00 | 0.00 | 0.00 | 86 | 1010.7 |
| 20260905124515 | 78 | 51 | 0.0 | 0.0 | 0.00 | 0.00 | 0.00 | 86 | 1010.8 |
| 20260905124014 | 78 | 51 | 0.0 | 1.0 | 0.00 | 0.00 | 0.00 | 86 | 1010.7 |
| 20260905123513 | 78 | 51 | 0.0 | 1.0 | 0.00 | 0.00 | 0.00 | 86 | 1010.7 |
| 20260905123012 | 78 | 51 | 0.0 | 1.0 | 0.00 | 0.00 | 0.00 | 85 | 1010.6 |
| 20260905122513 | 78 | 51 | 0.0 | 0.0 | 0.00 | 0.00 | 0.00 | 85 | 1010.5 |
| 20260905122011 | 78 | 51 | 0.0 | 0.0 | 0.00 | 0.00 | 0.00 | 85 | 1010.5 |
| 20260905121510 | 78 | 51 | 0.0 | 0.0 | 0.00 | 0.00 | 0.00 | 85 | 1010.5 |
| 20260905121012 | 78 | 51 | 0.0 | 0.0 | 0.00 | 0.00 | 0.00 | 85 | 1010.5 |
| 20260905120510 | 78 | 51 | 0.0 | 0.0 | 0.00 | 0.00 | 0.00 | 85 | 1010.5 |
| 20260905120009 | 78 | 51 | 0.0 | 0.0 | 0.00 | 0.00 | 0.00 | 85 | 1010.5 |
| 20260905115511 | 78 | 51 | 0.0 | 0.0 | 0.00 | 0.00 | 0.00 | 85 | 1010.4 |
| 20260905115009 | 78 | 51 | 0.0 | 0.0 | 0.00 | 0.00 | 0.00 | 85 | 1010.4 |
| 20260905114513 | 78 | 51 | 0.0 | 0.0 | 0.00 | 0.00 | 0.00 | 85 | 1010.4 |
| 20260905114009 | 78 | 51 | 0.0 | 0.0 | 0.00 | 0.00 | 0.00 | 85 | 1010.3 |
| 20260905113511 | 78 | 51 | 0.0 | 0.0 | 0.00 | 0.00 | 0.00 | 84 | 1010.4 |
| 20260905113012 | 78 | 51 | 0.0 | 0.0 | 0.00 | 0.00 | 0.00 | 84 | 1010.4 |
| 20260905112508 | 78 | 51 | 0.0 | 0.0 | 0.00 | 0.00 | 0.00 | 84 | 1010.4 |
| 20260905112010 | 78 | 51 | 0.0 | 0.0 | 0.00 | 0.00 | 0.00 | 84 | 1010.3 |
| 20260905111506 | 78 | 51 | 0.0 | 0.0 | 0.00 | 0.00 | 0.00 | 84 | 1010.3 |
| 20260905111007 | 78 | 51 | 0.0 | 0.0 | 0.00 | 0.00 | 0.00 | 84 | 1010.2 |
| 20260905110506 | 78 | 51 | 0.0 | 0.0 | 0.00 | 0.00 | 0.00 | 84 | 1010.3 |
| 20260905110006 | 78 | 51 | 0.0 | 0.0 | 0.00 | 0.00 | 0.00 | 84 | 1010.2 |
| 20260905105506 | 78 | 51 | 0.0 | 0.0 | 0.00 | 0.00 | 0.00 | 84 | 1010.3 |
| 20260905105005 | 79 | 51 | 0.0 | 0.0 | 0.00 | 0.00 | 0.00 | 84 | 1010.3 |
| 20260905104505 | 79 | 51 | 0.0 | 0.0 | 0.00 | 0.00 | 0.00 | 84 | 1010.2 |
| 20260905104005 | 79 | 51 | 0.0 | 0.0 | 0.00 | 0.00 | 0.00 | 84 | 1010.3 |
| 20260905103504 | 79 | 51 | 0.0 | 1.0 | 0.00 | 0.00 | 0.00 | 83 | 1010.2 |
| 20260905103007 | 79 | 51 | 0.0 | 1.0 | 0.00 | 0.00 | 0.00 | 83 | 1010.2 |
| 20260905102503 | 79 | 51 | 0.0 | 1.0 | 0.00 | 0.00 | 0.00 | 83 | 1010.1 |
| 20260905102003 | 79 | 51 | 0.0 | 1.0 | 0.00 | 0.00 | 0.00 | 83 | 1010.2 |
| 20260905101503 | 79 | 51 | 0.0 | 1.0 | 0.00 | 0.00 | 0.00 | 83 | 1010.1 |
| 20260905101002 | 79 | 51 | 0.0 | 2.0 | 0.00 | 0.00 | 0.00 | 83 | 1010.1 |
| 20260905100502 | 79 | 51 | 0.0 | 2.0 | 0.00 | 0.00 | 0.00 | 83 | 1010.1 |
| 20260905100003 | 79 | 51 | 0.0 | 0.0 | 0.00 | 0.00 | 0.00 | 83 | 1010.0 |
| 20260905095504 | 79 | 51 | 0.0 | 1.0 | 0.00 | 0.00 | 0.00 | 83 | 1010.1 |
| 20260905095004 | 79 | 51 | 0.0 | 1.0 | 0.00 | 0.00 | 0.00 | 82 | 1010.0 |
| 20260905094504 | 79 | 51 | 0.0 | 2.0 | 0.00 | 0.00 | 0.00 | 82 | 1010.1 |
| 20260905094001 | 79 | 51 | 0.0 | 2.0 | 0.00 | 0.00 | 0.00 | 82 | 1010.1 |
| 20260905093502 | 79 | 51 | 0.0 | 2.0 | 0.00 | 0.00 | 0.00 | 82 | 1010.0 |
| 20260905093001 | 79 | 51 | 0.0 | 1.0 | 0.00 | 0.00 | 0.00 | 82 | 1010.0 |
| 20260905092600 | 79 | 51 | 0.0 | 1.0 | 0.00 | 0.00 | 0.00 | 82 | 1010.0 |
| 20260905092100 | 79 | 51 | 0.0 | 1.0 | 0.00 | 0.00 | 0.00 | 82 | 1010.1 |
| 20260905091603 | 79 | 51 | 0.0 | 0.0 | 0.00 | 0.00 | 0.00 | 82 | 1010.1 |
| 20260905091100 | 79 | 51 | 0.0 | 0.0 | 0.00 | 0.00 | 0.00 | 82 | 1010.1 |
| 20260905090559 | 80 | 51 | 0.0 | 0.0 | 0.00 | 0.00 | 0.00 | 82 | 1010.2 |
| 20260905090059 | 80 | 51 | 0.0 | 2.0 | 0.00 | 0.00 | 0.00 | 82 | 1010.2 |
| 20260905085559 | 80 | 51 | 0.0 | 2.0 | 0.00 | 0.00 | 0.00 | 81 | 1010.0 |
| 20260905085058 | 80 | 51 | 0.0 | 3.0 | 0.00 | 0.00 | 0.00 | 81 | 1010.0 |
| 20260905084616 | 80 | 51 | 0.0 | 2.0 | 0.00 | 0.00 | 0.00 | 81 | 1009.9 |
| 20260905084058 | 80 | 51 | 0.0 | 2.0 | 0.00 | 0.00 | 0.00 | 81 | 1010.0 |
| 20260905083557 | 80 | 51 | 0.0 | 2.0 | 0.00 | 0.00 | 0.00 | 81 | 1010.0 |
| 20260905083058 | 80 | 51 | 0.0 | 2.0 | 0.00 | 0.00 | 0.00 | 81 | 1010.1 |
| 20260905082557 | 80 | 51 | 0.0 | 2.0 | 0.00 | 0.00 | 0.00 | 81 | 1010.1 |
| 20260905082056 | 80 | 51 | 0.0 | 2.0 | 0.00 | 0.00 | 0.00 | 80 | 1010.1 |
| 20260905081555 | 80 | 51 | 0.0 | 2.0 | 0.00 | 0.00 | 0.00 | 80 | 1010.2 |
| 20260905081055 | 80 | 153 | 0.0 | 2.0 | 0.00 | 0.00 | 0.00 | 80 | 1010.2 |
| 20260905080554 | 80 | 66 | 0.0 | 3.0 | 0.00 | 0.00 | 0.00 | 80 | 1010.3 |
| 20260905080055 | 80 | 77 | 0.0 | 3.0 | 0.00 | 0.00 | 0.00 | 80 | 1010.4 |
| 20260905075557 | 80 | 77 | 0.0 | 2.0 | 0.00 | 0.00 | 0.00 | 80 | 1010.3 |
| 20260905075056 | 80 | 77 | 0.0 | 2.0 | 0.00 | 0.00 | 0.00 | 79 | 1010.4 |
| 20260905074558 | 80 | 77 | 0.0 | 2.0 | 0.00 | 0.00 | 0.00 | 79 | 1010.4 |
| 20260905074053 | 80 | 84 | 0.0 | 3.0 | 0.00 | 0.00 | 0.00 | 79 | 1010.3 |
| 20260905073552 | 80 | 61 | 0.0 | 3.0 | 0.00 | 0.00 | 0.00 | 79 | 1010.4 |